Weather in Dispur

India     26°08′11″N   91°48′07″E
temp.,
°C
wind,
m/s
gust,
m/s
humid.,
%
clouds,
%
prec.,
mm/h
press.,
hPa
HPBL,
m
7 may, fri
fri723:30+23ne118311 1.8 101221
02:30+22se11895 0.1 101118
05:30+22nne11884 0.4 101282
08:30+27ene226613 0.1 1014755
11:30+31sw12486 0.1 10111460
14:30+32wnw13421 0.0 10091660
17:30+30sw124985 0.1 100880
20:30+25sse1177100 1.1 101027
8 may, sat
sat823:30+24ene1281100 1.5 101047
02:30+23ene118597 1.0 101032
05:30+22n1191100 3.6 1012128
08:30+23ene348898 1.6 1014378
11:30+26ne346939 2.8 1013858
14:30+29ene445614 0.1 10091020
17:30+26ene246916 0.6 1007173
20:30+23e22834 0.9 100949
9 may, sun
sun923:30+22ese11877 1.5 100920
02:30+22ese22890 1.1 100829
05:30+22ene23890 1.4 1009123
08:30+28ene34655 0.1 1011669
11:30+33ene22453 0.1 10081363
14:30+33wsw774365 0.0 10041913
17:30+29sw235599 0.1 100486
20:30+27se116346 0.0 100625
10 may, mon
mon1023:30+24sse11765 0.0 100659
02:30+22wnw2489100 0.8 1006186
05:30+22ssw1289100 1.9 1008202
08:30+24ene2380100 0.5 1009512
11:30+29ne335820 0.5 10081209
14:30+31ne225031 0.0 10041474
17:30+27ene366373 0.2 1003348
20:30+22e279053 3.4 1006215
11 may, tue
tue1123:30+22n1493100 7.8 1006161
02:30+22ene4995100 2.1 1006496
05:30+21e489698 7.1 1008425
08:30+24e4783100 1.0 1009569
11:30+24ne578371 1.8 1008476
14:30+28ene566415 0.1 1005959
17:30+26ene59701 0.1 1003663
20:30+22ene41090100 3.4 1006415